Regional Weather Roundup
Issued by NWS

Home | Current Version | Previous Version | Graphics & Text | Print | Product List | Glossary On
Versions: 1 2 3 4 5 6 7 8 9 10 11 12 13 14 15 16 17 18 19 20 21 22 23 24 25 26 27 28 29 30 31 32 33 34 35 36 37 38 39 40 41 42 43 44 45 46 47 48 49 50
000
ASUS43 KOAX 030310
RWRNE

WEATHER ROUNDUP FOR NEBRASKA
NATIONAL WEATHER SERVICE OMAHA NE
1000 PM CDT TUE SEP 02 2014

NOTES: SATELLITE DATA IS BEING USED TO AUGMENT CLOUD COVER ABOVE
       12000 FEET.
       "FAIR" INDICATES FEW OR NO CLOUDS BELOW 12,000 FEET WITH NO
       SIGNIFICANT WEATHER AND/OR OBSTRUCTIONS TO VISIBILITY.

  * THESE STATIONS DO NOT REPORT WEATHER SUCH AS RAIN...SNOW OR FOG.

NEZ001>004-019>022-054>056-030400-
NEBRASKA PANHANDLE

CITY           SKY/WX    TMP DP  RH WIND       PRES   REMARKS
SCOTTSBLUFF    CLEAR     66  52  60 E5        29.86R
ALLIANCE       CLEAR     63  54  72 SE8       29.86S
CHADRON        CLEAR     61  51  70 NE3       29.81S
KIMBALL        CLEAR     66  52  60 S7        29.93S
SIDNEY         CLEAR     67  53  61 SE9       29.92R
$$

NEZ057>060-069>072-079>082-030400-
SOUTHWEST NEBRASKA

CITY           SKY/WX    TMP DP  RH WIND       PRES   REMARKS
NORTH PLATTE   CLEAR     74  60  61 S13G20    29.87S
IMPERIAL       CLEAR     74  60  61 S13       29.90R
LEXINGTON      CLEAR     70  64  83 SE9       29.91S
MCCOOK         CLEAR     73  64  73 S7        29.91R
OGALLALA       CLEAR     69  58  70 S8        29.87S
$$

NEZ005>010-023>029-035>040-094-030400-
NORTH CENTRAL NEBRASKA

CITY           SKY/WX    TMP DP  RH WIND       PRES   REMARKS
VALENTINE      PTCLDY    74  62  66 S13       29.82S
AINSWORTH      PTCLDY    70  59  68 S14       29.85S
BROKEN BOW     PTCLDY    70  61  73 S12       29.90S
O`NEILL        PTCLDY    70  61  72 SE10      29.88S
ORD            CLEAR     70  60  70 SE12      29.89R
THEDFORD       PTCLDY    72  60  65 S10       29.87S
$$

NEZ041-046>049-061>064-073>077-083>087-030400-
SOUTH CENTRAL NEBRASKA

CITY           SKY/WX    TMP DP  RH WIND       PRES   REMARKS
GRAND ISLAND   CLEAR     69  60  73 SE7       29.93S
AURORA         CLEAR     65  63  93 SE6       29.94S
HASTINGS       CLEAR     72  57  59 SE12      29.93S
HEBRON         CLEAR     67  59  76 SE3       29.94S
HOLDREGE       CLEAR     66  63  88 CALM      29.93S
KEARNEY *      CLEAR     68  61  77 SE9       29.93S
YORK           CLEAR     66 N/A N/A SE7       29.95S
$$

NEZ011>018-030>034-042>045-030400-
NORTHEAST NEBRASKA

CITY           SKY/WX    TMP DP  RH WIND       PRES   REMARKS
NORFOLK        CLEAR     68  58  70 SE9       29.92S
ALBION         CLEAR     65  60  82 SE5       29.92S
BLAIR          CLEAR     69  60  73 SE3       29.96S
FREMONT        PTCLDY    66  60  80 SE5       29.96S
TEKAMAH        CLEAR     64  62  93 S6        29.94S
WAYNE          CLEAR     64  60  87 S3        29.93S
$$

NEZ050>053-065>068-078-088>093-030400-
SOUTHEAST NEBRASKA

CITY           SKY/WX    TMP DP  RH WIND       PRES   REMARKS
LINCOLN        CLEAR     72  59  63 SE8       29.95S
OMAHA EPPLEY   CLEAR     69  59  70 SE7       29.96R
BEATRICE       CLEAR     70  60  71 E5        29.95S
FALLS CITY     CLEAR     70  64  81 SE6       29.95R
NEBRASKA CITY  CLEAR     69  62  80 SE7       29.96S
PLATTSMOUTH    CLEAR     69  59  70 E3        29.96S
$$

NEZ044-045-051>053-067-030400-
OMAHA AREA

CITY           SKY/WX    TMP DP  RH WIND       PRES   REMARKS
OMAHA EPPLEY   CLEAR     69  59  70 SE7       29.96R
BLAIR          CLEAR     69  60  73 SE3       29.96S
FREMONT        PTCLDY    66  60  80 SE5       29.96S
MILLARD        CLEAR     65  62  89 CALM      29.95R
OFFUTT AFB     CLEAR     63  63  99 E3        29.95R
PLATTSMOUTH    CLEAR     69  59  70 E3        29.96S
WAHOO          FAIR      64  59  85 CALM      29.95S
$$


USA.gov is the U.S. government's official web portal to all federal, state and local government web resources and services.